contact: severine.martini@mio.osupytheas.fr, dominique.lefevre@mio.osupytheas.fr
Project:EMSO Ligure-ouest http://www.emso-fr.org/EMSO-France
Sensor Microcat Sea-Bird SBE37 SMP,  Serial 57510 
DOI : "https://doi.org/10.17882/97948" 
Title:EMSO Ligure Ouest : Data Bathybot capteur Microcat - deploiement 2023-04-28
Datetime,Profondeur,Latitude,Longitude,Temperature,Conductivite,Pression,Salinite
time,m,degree_north,degree_east,degree_C,S/m,db,PSU 
2023-12-23T00:00:49,2420,42.8014,5.9826,13.2980,4.59942,2453.446,38.4900
2023-12-23T00:03:49,2420,42.8014,5.9826,13.2979,4.59932,2453.446,38.4892
2023-12-23T00:06:49,2420,42.8014,5.9826,13.2978,4.60026,2453.454,38.4982
2023-12-23T00:09:49,2420,42.8014,5.9826,13.2978,4.60006,2453.469,38.4963
2023-12-23T00:12:49,2420,42.8014,5.9826,13.2978,4.60136,2453.431,38.5086
2023-12-23T00:15:49,2420,42.8014,5.9826,13.2979,4.59952,2453.469,38.4911
2023-12-23T00:18:49,2420,42.8014,5.9826,13.2975,4.59947,2453.469,38.4910
2023-12-23T00:21:49,2420,42.8014,5.9826,13.2978,4.59990,2453.461,38.4948
2023-12-23T00:24:49,2420,42.8014,5.9826,13.2978,4.59946,2453.446,38.4906
2023-12-23T00:27:49,2420,42.8014,5.9826,13.2978,4.59931,2453.469,38.4892
2023-12-23T00:30:49,2420,42.8014,5.9826,13.2977,4.59975,2453.469,38.4935
2023-12-23T00:33:49,2420,42.8014,5.9826,13.2979,4.59931,2453.491,38.4892
2023-12-23T00:36:49,2420,42.8014,5.9826,13.2977,4.60062,2453.491,38.5017
2023-12-23T00:39:49,2420,42.8014,5.9826,13.2974,4.60003,2453.506,38.4964
2023-12-23T00:42:49,2420,42.8014,5.9826,13.2978,4.59947,2453.454,38.4907
2023-12-23T00:45:49,2420,42.8014,5.9826,13.2975,4.59922,2453.491,38.4886
2023-12-23T00:48:49,2420,42.8014,5.9826,13.2979,4.59930,2453.491,38.4890
2023-12-23T00:51:49,2420,42.8014,5.9826,13.2977,4.59934,2453.491,38.4896
2023-12-23T00:54:49,2420,42.8014,5.9826,13.2979,4.59930,2453.477,38.4890
2023-12-23T00:57:49,2420,42.8014,5.9826,13.2980,4.59930,2453.469,38.4889
2023-12-23T01:00:49,2420,42.8014,5.9826,13.2975,4.59965,2453.491,38.4927
2023-12-23T01:03:49,2420,42.8014,5.9826,13.2979,4.60109,2453.514,38.5058
2023-12-23T01:06:49,2420,42.8014,5.9826,13.2982,4.60100,2453.491,38.5048
2023-12-23T01:09:49,2420,42.8014,5.9826,13.2979,4.59948,2453.491,38.4907
2023-12-23T01:12:49,2420,42.8014,5.9826,13.2975,4.59920,2453.469,38.4885
2023-12-23T01:15:49,2420,42.8014,5.9826,13.2978,4.59929,2453.491,38.4890
2023-12-23T01:18:49,2420,42.8014,5.9826,13.2979,4.59934,2453.537,38.4893
2023-12-23T01:21:49,2420,42.8014,5.9826,13.2977,4.59921,2453.491,38.4884
2023-12-23T01:24:49,2420,42.8014,5.9826,13.2980,4.59922,2453.477,38.4881
2023-12-23T01:27:49,2420,42.8014,5.9826,13.2978,4.59921,2453.514,38.4883
2023-12-23T01:30:49,2420,42.8014,5.9826,13.2984,4.59917,2453.477,38.4873
2023-12-23T01:33:49,2420,42.8014,5.9826,13.2977,4.59934,2453.537,38.4896
2023-12-23T01:36:49,2420,42.8014,5.9826,13.2978,4.59928,2453.514,38.4889
2023-12-23T01:39:49,2420,42.8014,5.9826,13.2977,4.59922,2453.522,38.4884
2023-12-23T01:42:49,2420,42.8014,5.9826,13.2980,4.59929,2453.499,38.4888
2023-12-23T01:45:49,2420,42.8014,5.9826,13.2978,4.59924,2453.537,38.4886
2023-12-23T01:48:49,2420,42.8014,5.9826,13.2975,4.60053,2453.514,38.5010
2023-12-23T01:51:49,2420,42.8014,5.9826,13.2985,4.59957,2453.537,38.4910
2023-12-23T01:54:49,2420,42.8014,5.9826,13.2978,4.59925,2453.514,38.4886
2023-12-23T01:57:49,2420,42.8014,5.9826,13.2979,4.59940,2453.537,38.4899
2023-12-23T02:00:49,2420,42.8014,5.9826,13.2975,4.59928,2453.514,38.4892
2023-12-23T02:03:49,2420,42.8014,5.9826,13.2979,4.59940,2453.537,38.4899
2023-12-23T02:06:49,2420,42.8014,5.9826,13.2982,4.59990,2453.559,38.4944
2023-12-23T02:09:49,2420,42.8014,5.9826,13.2982,4.59963,2453.537,38.4918
2023-12-23T02:12:49,2420,42.8014,5.9826,13.2993,4.59960,2453.559,38.4905
2023-12-23T02:15:49,2420,42.8014,5.9826,13.3119,4.60067,2453.537,38.4880
2023-12-23T02:18:49,2420,42.8014,5.9826,13.3066,4.59978,2453.537,38.4848
2023-12-23T02:21:49,2420,42.8014,5.9826,13.3079,4.60126,2453.537,38.4976
2023-12-23T02:24:49,2420,42.8014,5.9826,13.3179,4.60133,2453.537,38.4883
2023-12-23T02:27:49,2420,42.8014,5.9826,13.2993,4.59969,2453.537,38.4913
2023-12-23T02:30:49,2420,42.8014,5.9826,13.2988,4.59949,2453.559,38.4899
2023-12-23T02:33:49,2420,42.8014,5.9826,13.2993,4.59956,2453.559,38.4900
2023-12-23T02:36:49,2420,42.8014,5.9826,13.3002,4.59952,2453.582,38.4887
2023-12-23T02:39:49,2420,42.8014,5.9826,13.3011,4.59955,2453.551,38.4881
2023-12-23T02:42:49,2420,42.8014,5.9826,13.2990,4.59954,2453.537,38.4901
2023-12-23T02:45:49,2420,42.8014,5.9826,13.3004,4.59950,2453.537,38.4883
2023-12-23T02:48:49,2420,42.8014,5.9826,13.3007,4.59948,2453.559,38.4879
2023-12-23T02:51:49,2420,42.8014,5.9826,13.2985,4.59956,2453.559,38.4908
2023-12-23T02:54:49,2420,42.8014,5.9826,13.2996,4.59994,2453.596,38.4934
2023-12-23T02:57:50,2420,42.8014,5.9826,13.3041,4.60105,2453.559,38.4993
2023-12-23T03:00:49,2420,42.8014,5.9826,13.3057,4.60031,2453.559,38.4908
2023-12-23T03:03:49,2420,42.8014,5.9826,13.3027,4.60040,2453.559,38.4946
2023-12-23T03:06:49,2420,42.8014,5.9826,13.3084,4.60107,2453.596,38.4953
2023-12-23T03:09:49,2420,42.8014,5.9826,13.3218,4.60152,2453.491,38.4862
2023-12-23T03:12:49,2420,42.8014,5.9826,13.3078,4.60120,2453.514,38.4971
2023-12-23T03:15:49,2420,42.8014,5.9826,13.3103,4.60197,2453.514,38.5019
2023-12-23T03:18:49,2420,42.8014,5.9826,13.3202,4.60519,2453.596,38.5224
2023-12-23T03:21:49,2420,42.8014,5.9826,13.3326,4.60476,2453.582,38.5061
2023-12-23T03:24:49,2420,42.8014,5.9826,13.3329,4.60357,2453.596,38.4946
2023-12-23T03:27:49,2420,42.8014,5.9826,13.3107,4.60516,2453.582,38.5315
2023-12-23T03:30:49,2420,42.8014,5.9826,13.3197,4.60366,2453.604,38.5085
2023-12-23T03:33:49,2420,42.8014,5.9826,13.3234,4.60055,2453.619,38.4755
2023-12-23T03:36:49,2420,42.8014,5.9826,13.3048,4.60008,2453.596,38.4895
2023-12-23T03:39:49,2420,42.8014,5.9826,13.3058,4.59977,2453.604,38.4855
2023-12-23T03:42:49,2420,42.8014,5.9826,13.3008,4.59993,2453.619,38.4921
2023-12-23T03:45:49,2420,42.8014,5.9826,13.3001,4.59967,2453.627,38.4902
2023-12-23T03:48:49,2420,42.8014,5.9826,13.3007,4.60033,2453.604,38.4960
2023-12-23T03:51:49,2420,42.8014,5.9826,13.3023,4.59991,2453.604,38.4903
2023-12-23T03:54:49,2420,42.8014,5.9826,13.3032,4.59970,2453.582,38.4875
2023-12-23T03:57:49,2420,42.8014,5.9826,13.3042,4.59991,2453.582,38.4885
2023-12-23T04:00:49,2420,42.8014,5.9826,13.3038,4.59959,2453.627,38.4859
2023-12-23T04:03:49,2420,42.8014,5.9826,13.3007,4.59993,2453.627,38.4922
2023-12-23T04:06:49,2420,42.8014,5.9826,13.3002,4.59998,2453.582,38.4931
2023-12-23T04:09:49,2420,42.8014,5.9826,13.3018,4.59983,2453.604,38.4901
2023-12-23T04:12:49,2420,42.8014,5.9826,13.2990,4.59971,2453.641,38.4917
2023-12-23T04:15:49,2420,42.8014,5.9826,13.3000,4.59957,2453.604,38.4894
2023-12-23T04:18:49,2420,42.8014,5.9826,13.3000,4.59936,2453.604,38.4874
2023-12-23T04:21:49,2420,42.8014,5.9826,13.2987,4.59954,2453.582,38.4905
2023-12-23T04:24:49,2420,42.8014,5.9826,13.3019,4.59978,2453.641,38.4895
2023-12-23T04:27:49,2420,42.8014,5.9826,13.2984,4.59994,2453.582,38.4945
2023-12-23T04:30:50,2420,42.8014,5.9826,13.3015,4.59996,2453.641,38.4916
2023-12-23T04:33:49,2420,42.8014,5.9826,13.3051,4.59968,2453.604,38.4854
2023-12-23T04:36:49,2420,42.8014,5.9826,13.3041,4.59972,2453.619,38.4868
2023-12-23T04:39:49,2420,42.8014,5.9826,13.3067,4.59969,2453.582,38.4839
2023-12-23T04:42:49,2420,42.8014,5.9826,13.3025,4.59966,2453.604,38.4878
2023-12-23T04:45:49,2420,42.8014,5.9826,13.3088,4.59974,2453.604,38.4823
2023-12-23T04:48:49,2420,42.8014,5.9826,13.3111,4.60028,2453.627,38.4850
2023-12-23T04:51:49,2420,42.8014,5.9826,13.3072,4.59981,2453.604,38.4845
2023-12-23T04:54:49,2420,42.8014,5.9826,13.3007,4.60182,2453.604,38.5100
2023-12-23T04:57:49,2420,42.8014,5.9826,13.3052,4.60111,2453.619,38.4988
2023-12-23T05:00:49,2420,42.8014,5.9826,13.3017,4.60009,2453.604,38.4927
2023-12-23T05:03:49,2420,42.8014,5.9826,13.3086,4.60190,2453.604,38.5029
2023-12-23T05:06:49,2420,42.8014,5.9826,13.3120,4.60046,2453.582,38.4859
2023-12-23T05:09:49,2420,42.8014,5.9826,13.3032,4.60040,2453.604,38.4941
2023-12-23T05:12:49,2420,42.8014,5.9826,13.3054,4.60003,2453.627,38.4885
2023-12-23T05:15:49,2420,42.8014,5.9826,13.3062,4.60089,2453.619,38.4957
2023-12-23T05:18:49,2420,42.8014,5.9826,13.3116,4.60101,2453.590,38.4915
2023-12-23T05:21:49,2420,42.8014,5.9826,13.3064,4.60062,2453.582,38.4930
2023-12-23T05:24:49,2420,42.8014,5.9826,13.3092,4.60069,2453.596,38.4909
2023-12-23T05:27:49,2420,42.8014,5.9826,13.3156,4.60148,2453.604,38.4920
2023-12-23T05:30:50,2420,42.8014,5.9826,13.3083,4.60045,2453.604,38.4896
2023-12-23T05:33:49,2420,42.8014,5.9826,13.3071,4.60067,2453.627,38.4928
2023-12-23T05:36:49,2420,42.8014,5.9826,13.3029,4.60075,2453.604,38.4976
2023-12-23T05:39:49,2420,42.8014,5.9826,13.3058,4.60132,2453.604,38.5002
2023-12-23T05:42:49,2420,42.8014,5.9826,13.3164,4.60149,2453.559,38.4912
2023-12-23T05:45:49,2420,42.8014,5.9826,13.3088,4.60203,2453.619,38.5039
2023-12-23T05:48:49,2420,42.8014,5.9826,13.3162,4.60220,2453.582,38.4982
2023-12-23T05:51:50,2420,42.8014,5.9826,13.3054,4.60031,2453.627,38.4910
2023-12-23T05:54:49,2420,42.8014,5.9826,13.3087,4.60000,2453.604,38.4849
2023-12-23T05:57:49,2420,42.8014,5.9826,13.3033,4.60030,2453.604,38.4930
2023-12-23T06:00:49,2420,42.8014,5.9826,13.3002,4.59981,2453.582,38.4915
2023-12-23T06:03:49,2420,42.8014,5.9826,13.3030,4.59993,2453.604,38.4898
2023-12-23T06:06:49,2420,42.8014,5.9826,13.3003,4.60005,2453.582,38.4936
2023-12-23T06:09:49,2420,42.8014,5.9826,13.2998,4.59965,2453.619,38.4904
2023-12-23T06:12:49,2420,42.8014,5.9826,13.3003,4.60024,2453.582,38.4954
2023-12-23T06:15:49,2420,42.8014,5.9826,13.3058,4.59991,2453.604,38.4870
2023-12-23T06:18:49,2420,42.8014,5.9826,13.3007,4.59964,2453.567,38.4894
2023-12-23T06:21:49,2420,42.8014,5.9826,13.2988,4.59957,2453.604,38.4907
2023-12-23T06:24:49,2420,42.8014,5.9826,13.3006,4.59979,2453.582,38.4909
2023-12-23T06:27:49,2420,42.8014,5.9826,13.2990,4.59961,2453.604,38.4908
2023-12-23T06:30:49,2420,42.8014,5.9826,13.3004,4.59971,2453.604,38.4904
2023-12-23T06:33:49,2420,42.8014,5.9826,13.3013,4.59963,2453.604,38.4887
2023-12-23T06:36:49,2420,42.8014,5.9826,13.3035,4.59987,2453.612,38.4887
2023-12-23T06:39:49,2420,42.8014,5.9826,13.3004,4.59972,2453.604,38.4904
2023-12-23T06:42:49,2420,42.8014,5.9826,13.2988,4.59962,2453.627,38.4911
2023-12-23T06:45:49,2420,42.8014,5.9826,13.3000,4.59980,2453.582,38.4916
2023-12-23T06:48:49,2420,42.8014,5.9826,13.3049,4.59996,2453.619,38.4882
2023-12-23T06:51:49,2420,42.8014,5.9826,13.3045,4.59971,2453.604,38.4863
2023-12-23T06:54:49,2420,42.8014,5.9826,13.3037,4.59978,2453.582,38.4878
2023-12-23T06:57:49,2420,42.8014,5.9826,13.3014,4.59954,2453.627,38.4877
2023-12-23T07:00:49,2420,42.8014,5.9826,13.2995,4.59945,2453.590,38.4888
2023-12-23T07:03:49,2420,42.8014,5.9826,13.2990,4.59968,2453.582,38.4915
2023-12-23T07:06:49,2420,42.8014,5.9826,13.2981,4.59953,2453.596,38.4909
2023-12-23T07:09:49,2420,42.8014,5.9826,13.3040,4.59968,2453.627,38.4865
2023-12-23T07:12:49,2420,42.8014,5.9826,13.2989,4.59952,2453.604,38.4900
2023-12-23T07:15:49,2420,42.8014,5.9826,13.3015,4.59976,2453.604,38.4898
2023-12-23T07:18:49,2420,42.8014,5.9826,13.3023,4.59976,2453.604,38.4889
2023-12-23T07:21:49,2420,42.8014,5.9826,13.3037,4.59962,2453.627,38.4863
2023-12-23T07:24:49,2420,42.8014,5.9826,13.2998,4.59974,2453.590,38.4913
2023-12-23T07:27:49,2420,42.8014,5.9826,13.3011,4.59952,2453.604,38.4879
2023-12-23T07:30:50,2420,42.8014,5.9826,13.3000,4.59962,2453.582,38.4898
2023-12-23T07:33:49,2420,42.8014,5.9826,13.2985,4.59972,2453.582,38.4924
2023-12-23T07:36:49,2420,42.8014,5.9826,13.2980,4.59969,2453.604,38.4926
2023-12-23T07:39:49,2420,42.8014,5.9826,13.2998,4.59946,2453.604,38.4886
2023-12-23T07:42:49,2420,42.8014,5.9826,13.3016,4.59934,2453.582,38.4857
2023-12-23T07:45:49,2420,42.8014,5.9826,13.2985,4.59936,2453.627,38.4889
2023-12-23T07:48:49,2420,42.8014,5.9826,13.2993,4.59951,2453.604,38.4895
2023-12-23T07:51:48,2420,42.8014,5.9826,13.3029,4.59986,2453.604,38.4893
2023-12-23T07:54:49,2420,42.8014,5.9826,13.2997,4.59948,2453.582,38.4889
2023-12-23T07:57:49,2420,42.8014,5.9826,13.2988,4.59967,2453.559,38.4916
2023-12-23T08:00:49,2420,42.8014,5.9826,13.2981,4.59964,2453.604,38.4920
2023-12-23T08:03:49,2420,42.8014,5.9826,13.3006,4.59936,2453.567,38.4869
2023-12-23T08:06:49,2420,42.8014,5.9826,13.2999,4.59927,2453.582,38.4867
2023-12-23T08:09:49,2420,42.8014,5.9826,13.2996,4.59926,2453.582,38.4870
2023-12-23T08:12:49,2420,42.8014,5.9826,13.2991,4.59937,2453.604,38.4884
2023-12-23T08:15:49,2420,42.8014,5.9826,13.2995,4.59922,2453.582,38.4867
2023-12-23T08:18:49,2420,42.8014,5.9826,13.2982,4.59926,2453.582,38.4883
2023-12-23T08:21:49,2420,42.8014,5.9826,13.2987,4.59923,2453.582,38.4875
2023-12-23T08:24:49,2420,42.8014,5.9826,13.2982,4.59926,2453.582,38.4883
2023-12-23T08:27:49,2420,42.8014,5.9826,13.2981,4.59931,2453.559,38.4889
2023-12-23T08:30:49,2420,42.8014,5.9826,13.2989,4.59955,2453.582,38.4903
2023-12-23T08:33:49,2420,42.8014,5.9826,13.2993,4.59935,2453.559,38.4881
2023-12-23T08:36:49,2420,42.8014,5.9826,13.2981,4.59933,2453.559,38.4891
2023-12-23T08:39:49,2420,42.8014,5.9826,13.2981,4.59918,2453.559,38.4877
2023-12-23T08:42:49,2420,42.8014,5.9826,13.2992,4.59932,2453.559,38.4879
2023-12-23T08:45:49,2420,42.8014,5.9826,13.2999,4.59943,2453.582,38.4882
2023-12-23T08:48:49,2420,42.8014,5.9826,13.2979,4.59926,2453.537,38.4887
2023-12-23T08:51:49,2420,42.8014,5.9826,13.2988,4.59833,2453.537,38.4790
2023-12-23T08:54:49,2420,42.8014,5.9826,13.2982,4.59927,2453.582,38.4884
2023-12-23T08:57:49,2420,42.8014,5.9826,13.2979,4.59919,2453.559,38.4879
2023-12-23T09:00:50,2420,42.8014,5.9826,13.2982,4.59928,2453.559,38.4885
2023-12-23T09:03:49,2420,42.8014,5.9826,13.2984,4.59925,2453.559,38.4880
2023-12-23T09:06:49,2420,42.8014,5.9826,13.2981,4.59932,2453.559,38.4890
2023-12-23T09:09:49,2420,42.8014,5.9826,13.2979,4.59922,2453.574,38.4883
2023-12-23T09:12:49,2420,42.8014,5.9826,13.2977,4.59926,2453.559,38.4889
2023-12-23T09:15:49,2420,42.8014,5.9826,13.2983,4.59918,2453.559,38.4875
2023-12-23T09:18:49,2420,42.8014,5.9826,13.2983,4.59922,2453.559,38.4878
2023-12-23T09:21:49,2420,42.8014,5.9826,13.2982,4.59926,2453.559,38.4884
2023-12-23T09:24:49,2420,42.8014,5.9826,13.2982,4.59918,2453.559,38.4876
2023-12-23T09:27:49,2420,42.8014,5.9826,13.2978,4.59922,2453.514,38.4884
2023-12-23T09:30:49,2420,42.8014,5.9826,13.2982,4.59925,2453.537,38.4882
2023-12-23T09:33:49,2420,42.8014,5.9826,13.2982,4.59918,2453.551,38.4876
2023-12-23T09:36:49,2420,42.8014,5.9826,13.2980,4.59922,2453.582,38.4881
2023-12-23T09:39:49,2420,42.8014,5.9826,13.2982,4.59913,2453.559,38.4871
2023-12-23T09:42:49,2420,42.8014,5.9826,13.2978,4.59921,2453.574,38.4882
2023-12-23T09:45:49,2420,42.8014,5.9826,13.2984,4.59914,2453.522,38.4870
2023-12-23T09:48:49,2420,42.8014,5.9826,13.2983,4.59918,2453.537,38.4875
2023-12-23T09:51:49,2420,42.8014,5.9826,13.2979,4.59917,2453.522,38.4878
2023-12-23T09:54:49,2420,42.8014,5.9826,13.2981,4.59914,2453.537,38.4873
2023-12-23T09:57:49,2420,42.8014,5.9826,13.2981,4.59917,2453.559,38.4875
2023-12-23T10:00:49,2420,42.8014,5.9826,13.2982,4.59919,2453.537,38.4877
2023-12-23T10:03:49,2420,42.8014,5.9826,13.2978,4.59913,2453.559,38.4874
2023-12-23T10:06:49,2420,42.8014,5.9826,13.2980,4.59915,2453.537,38.4875
2023-12-23T10:09:49,2420,42.8014,5.9826,13.2981,4.59913,2453.537,38.4872
2023-12-23T10:12:49,2420,42.8014,5.9826,13.2979,4.59910,2453.537,38.4871
2023-12-23T10:15:49,2420,42.8014,5.9826,13.2985,4.59917,2453.537,38.4871
2023-12-23T10:18:49,2420,42.8014,5.9826,13.2978,4.59928,2453.559,38.4890
2023-12-23T10:21:50,2420,42.8014,5.9826,13.2978,4.59917,2453.537,38.4878
2023-12-23T10:24:49,2420,42.8014,5.9826,13.2981,4.59921,2453.574,38.4879
2023-12-23T10:27:49,2420,42.8014,5.9826,13.2982,4.59919,2453.574,38.4877
2023-12-23T10:30:49,2420,42.8014,5.9826,13.2982,4.59923,2453.559,38.4881
2023-12-23T10:33:49,2420,42.8014,5.9826,13.2980,4.59922,2453.522,38.4882
2023-12-23T10:36:49,2420,42.8014,5.9826,13.2983,4.59920,2453.537,38.4877
2023-12-23T10:39:49,2420,42.8014,5.9826,13.2981,4.59918,2453.537,38.4877
2023-12-23T10:42:49,2420,42.8014,5.9826,13.2982,4.59926,2453.537,38.4883
2023-12-23T10:45:49,2420,42.8014,5.9826,13.2981,4.59926,2453.551,38.4884
2023-12-23T10:48:49,2420,42.8014,5.9826,13.2979,4.59922,2453.582,38.4883
2023-12-23T10:51:49,2420,42.8014,5.9826,13.2982,4.59924,2453.537,38.4882
2023-12-23T10:54:49,2420,42.8014,5.9826,13.2978,4.59921,2453.582,38.4883
2023-12-23T10:57:49,2420,42.8014,5.9826,13.2979,4.59916,2453.559,38.4876
2023-12-23T11:00:49,2420,42.8014,5.9826,13.2979,4.59914,2453.582,38.4875
2023-12-23T11:03:49,2420,42.8014,5.9826,13.2978,4.59911,2453.514,38.4873
2023-12-23T11:06:49,2420,42.8014,5.9826,13.2978,4.59911,2453.537,38.4873
2023-12-23T11:09:49,2420,42.8014,5.9826,13.2976,4.59911,2453.537,38.4875
2023-12-23T11:12:49,2420,42.8014,5.9826,13.2978,4.59914,2453.499,38.4875
2023-12-23T11:15:49,2420,42.8014,5.9826,13.2978,4.59922,2453.522,38.4884
2023-12-23T11:18:49,2420,42.8014,5.9826,13.2980,4.59923,2453.574,38.4882
2023-12-23T11:21:49,2420,42.8014,5.9826,13.2976,4.59918,2453.559,38.4882
2023-12-23T11:24:49,2420,42.8014,5.9826,13.2976,4.59911,2453.514,38.4875
2023-12-23T11:27:49,2420,42.8014,5.9826,13.2982,4.59913,2453.559,38.4871
2023-12-23T11:30:49,2420,42.8014,5.9826,13.2981,4.59910,2453.514,38.4869
2023-12-23T11:33:49,2420,42.8014,5.9826,13.2977,4.59906,2453.559,38.4869
2023-12-23T11:36:49,2420,42.8014,5.9826,13.2979,4.59906,2453.559,38.4867
2023-12-23T11:39:49,2420,42.8014,5.9826,13.2980,4.59915,2453.559,38.4875
2023-12-23T11:42:49,2420,42.8014,5.9826,13.2979,4.59926,2453.537,38.4886
2023-12-23T11:45:49,2420,42.8014,5.9826,13.2982,4.59911,2453.559,38.4869
2023-12-23T11:48:49,2420,42.8014,5.9826,13.2979,4.59915,2453.537,38.4876
2023-12-23T11:51:49,2420,42.8014,5.9826,13.2981,4.59909,2453.559,38.4868
2023-12-23T11:54:49,2420,42.8014,5.9826,13.2977,4.59912,2453.544,38.4875
2023-12-23T11:57:49,2420,42.8014,5.9826,13.2982,4.59911,2453.537,38.4870
2023-12-23T12:00:49,2420,42.8014,5.9826,13.2979,4.59917,2453.559,38.4877
2023-12-23T12:03:49,2420,42.8014,5.9826,13.2976,4.59914,2453.559,38.4878
2023-12-23T12:06:49,2420,42.8014,5.9826,13.2979,4.59920,2453.582,38.4879
2023-12-23T12:09:49,2420,42.8014,5.9826,13.2979,4.59911,2453.514,38.4871
2023-12-23T12:12:49,2420,42.8014,5.9826,13.2980,4.59906,2453.537,38.4866
2023-12-23T12:15:49,2420,42.8014,5.9826,13.2977,4.59910,2453.537,38.4873
2023-12-23T12:18:49,2420,42.8014,5.9826,13.2975,4.59912,2453.537,38.4877
2023-12-23T12:21:49,2420,42.8014,5.9826,13.2975,4.59905,2453.567,38.4870
2023-12-23T12:24:49,2420,42.8014,5.9826,13.2981,4.59909,2453.537,38.4868
2023-12-23T12:27:49,2420,42.8014,5.9826,13.2979,4.59908,2453.537,38.4869
2023-12-23T12:30:49,2420,42.8014,5.9826,13.2975,4.59911,2453.537,38.4876
2023-12-23T12:33:49,2420,42.8014,5.9826,13.2979,4.59916,2453.514,38.4877
2023-12-23T12:36:49,2420,42.8014,5.9826,13.2979,4.59914,2453.559,38.4875
2023-12-23T12:39:49,2420,42.8014,5.9826,13.2979,4.59920,2453.537,38.4881
2023-12-23T12:42:49,2420,42.8014,5.9826,13.2979,4.59912,2453.559,38.4873
2023-12-23T12:45:49,2420,42.8014,5.9826,13.2979,4.59912,2453.537,38.4873
2023-12-23T12:48:49,2420,42.8014,5.9826,13.2979,4.59917,2453.574,38.4877
2023-12-23T12:51:49,2420,42.8014,5.9826,13.2979,4.59917,2453.537,38.4878
2023-12-23T12:54:49,2420,42.8014,5.9826,13.2976,4.59911,2453.551,38.4875
2023-12-23T12:57:49,2420,42.8014,5.9826,13.2977,4.59919,2453.559,38.4882
2023-12-23T13:00:49,2420,42.8014,5.9826,13.2982,4.59917,2453.537,38.4875
2023-12-23T13:03:49,2420,42.8014,5.9826,13.2980,4.59913,2453.559,38.4873
2023-12-23T13:06:49,2420,42.8014,5.9826,13.2978,4.59907,2453.559,38.4869
2023-12-23T13:09:49,2420,42.8014,5.9826,13.2979,4.59915,2453.582,38.4876
2023-12-23T13:12:49,2420,42.8014,5.9826,13.2981,4.59916,2453.559,38.4875
2023-12-23T13:15:49,2420,42.8014,5.9826,13.2977,4.59908,2453.559,38.4871
2023-12-23T13:18:49,2420,42.8014,5.9826,13.2978,4.59917,2453.590,38.4879
2023-12-23T13:21:49,2420,42.8014,5.9826,13.2977,4.59911,2453.604,38.4874
2023-12-23T13:24:49,2420,42.8014,5.9826,13.2979,4.59917,2453.582,38.4877
2023-12-23T13:27:49,2420,42.8014,5.9826,13.2978,4.59909,2453.567,38.4871
2023-12-23T13:30:49,2420,42.8014,5.9826,13.2979,4.59908,2453.559,38.4870
2023-12-23T13:33:49,2420,42.8014,5.9826,13.2978,4.59917,2453.582,38.4878
2023-12-23T13:36:49,2420,42.8014,5.9826,13.2979,4.59909,2453.567,38.4870
2023-12-23T13:39:49,2420,42.8014,5.9826,13.2979,4.59906,2453.582,38.4866
2023-12-23T13:42:49,2420,42.8014,5.9826,13.2980,4.59905,2453.582,38.4865
2023-12-23T13:45:49,2420,42.8014,5.9826,13.2976,4.59902,2453.567,38.4866
2023-12-23T13:48:49,2420,42.8014,5.9826,13.2979,4.59906,2453.604,38.4867
2023-12-23T13:51:49,2420,42.8014,5.9826,13.2977,4.59903,2453.582,38.4867
2023-12-23T13:54:49,2420,42.8014,5.9826,13.2975,4.59911,2453.574,38.4876
2023-12-23T13:57:49,2420,42.8014,5.9826,13.2978,4.59907,2453.627,38.4869
2023-12-23T14:00:49,2420,42.8014,5.9826,13.2979,4.59916,2453.604,38.4877
2023-12-23T14:03:49,2420,42.8014,5.9826,13.2979,4.59910,2453.582,38.4871
2023-12-23T14:06:49,2420,42.8014,5.9826,13.2978,4.59918,2453.590,38.4880
2023-12-23T14:09:49,2420,42.8014,5.9826,13.2975,4.59915,2453.590,38.4879
2023-12-23T14:12:49,2420,42.8014,5.9826,13.2978,4.59917,2453.582,38.4879
2023-12-23T14:15:49,2420,42.8014,5.9826,13.2978,4.59914,2453.604,38.4876
2023-12-23T14:18:49,2420,42.8014,5.9826,13.2979,4.59915,2453.604,38.4876
2023-12-23T14:21:49,2420,42.8014,5.9826,13.2978,4.59913,2453.604,38.4874
2023-12-23T14:24:49,2420,42.8014,5.9826,13.2979,4.59908,2453.627,38.4868
2023-12-23T14:27:49,2420,42.8014,5.9826,13.2978,4.59912,2453.627,38.4874
2023-12-23T14:30:49,2420,42.8014,5.9826,13.2978,4.59909,2453.641,38.4871
2023-12-23T14:33:49,2420,42.8014,5.9826,13.2978,4.59914,2453.627,38.4876
2023-12-23T14:36:49,2420,42.8014,5.9826,13.2978,4.59921,2453.612,38.4883
2023-12-23T14:39:49,2420,42.8014,5.9826,13.2978,4.59909,2453.635,38.4871
2023-12-23T14:42:49,2420,42.8014,5.9826,13.2978,4.59916,2453.604,38.4877
2023-12-23T14:45:49,2420,42.8014,5.9826,13.2976,4.59917,2453.635,38.4880
2023-12-23T14:48:49,2420,42.8014,5.9826,13.2982,4.59915,2453.672,38.4873
2023-12-23T14:51:49,2420,42.8014,5.9826,13.2979,4.59913,2453.604,38.4874
2023-12-23T14:54:49,2420,42.8014,5.9826,13.2979,4.59911,2453.627,38.4871
2023-12-23T14:57:50,2420,42.8014,5.9826,13.2977,4.59914,2453.641,38.4876
2023-12-23T15:00:49,2420,42.8014,5.9826,13.2983,4.59911,2453.627,38.4867
2023-12-23T15:03:49,2420,42.8014,5.9826,13.2979,4.59918,2453.649,38.4878
2023-12-23T15:06:49,2420,42.8014,5.9826,13.2982,4.59912,2453.649,38.4870
2023-12-23T15:09:49,2420,42.8014,5.9826,13.2979,4.59908,2453.604,38.4870
2023-12-23T15:12:49,2420,42.8014,5.9826,13.2979,4.59909,2453.649,38.4869
2023-12-23T15:15:49,2420,42.8014,5.9826,13.2976,4.59908,2453.649,38.4871
2023-12-23T15:18:49,2420,42.8014,5.9826,13.2977,4.59909,2453.649,38.4871
2023-12-23T15:21:49,2420,42.8014,5.9826,13.2975,4.59909,2453.649,38.4873
2023-12-23T15:24:49,2420,42.8014,5.9826,13.2980,4.59909,2453.649,38.4868
2023-12-23T15:27:49,2420,42.8014,5.9826,13.2976,4.59919,2453.664,38.4882
2023-12-23T15:30:49,2420,42.8014,5.9826,13.2980,4.59909,2453.672,38.4869
2023-12-23T15:33:49,2420,42.8014,5.9826,13.2978,4.59917,2453.649,38.4878
2023-12-23T15:36:49,2420,42.8014,5.9826,13.2978,4.59914,2453.649,38.4875
2023-12-23T15:39:49,2420,42.8014,5.9826,13.2979,4.59911,2453.680,38.4871
2023-12-23T15:42:49,2420,42.8014,5.9826,13.2976,4.59909,2453.649,38.4873
2023-12-23T15:45:49,2420,42.8014,5.9826,13.2978,4.59906,2453.649,38.4867
2023-12-23T15:48:49,2420,42.8014,5.9826,13.2975,4.59906,2453.612,38.4871
2023-12-23T15:51:49,2420,42.8014,5.9826,13.2978,4.59903,2453.672,38.4864
2023-12-23T15:54:49,2420,42.8014,5.9826,13.2984,4.59911,2453.635,38.4866
2023-12-23T15:57:49,2420,42.8014,5.9826,13.2978,4.59915,2453.649,38.4877
2023-12-23T16:00:49,2420,42.8014,5.9826,13.2978,4.59911,2453.612,38.4872
2023-12-23T16:03:49,2420,42.8014,5.9826,13.2979,4.59916,2453.672,38.4876